Probability
0 3 11 24 34 37 38 42 49 53 53 51 52 55 53 50 47 42 35 29 22 14 7 4 3 1 0 0 0 0 0 0 0 0 0 0 0 0 0 0 0 0 0
1 5 14 26 36 40 41 45 51 55 54 53 53 54 52 48 44 39 33 27 22 14 8 5 3 1 0 0 0 0 0 0 0 0 0 0 0 0 0 0 0 0 0
3 7 16 28 39 43 44 48 53 56 56 55 55 53 49 44 39 35 30 25 20 14 9 6 3 1 0 0 0 0 0 0 0 0 0 0 0 0 0 0 0 0 0
6 10 18 28 39 43 44 46 52 55 55 56 55 51 46 40 36 32 29 24 19 14 10 8 4 1 0 0 0 0 0 0 0 0 0 0 0 0 0 0 0 0 0
10 13 19 27 35 40 40 42 48 52 52 52 52 49 46 40 36 33 30 25 21 15 11 9 5 1 0 0 0 0 0 0 0 0 0 0 0 0 0 0 0 0 0
13 14 18 26 33 36 38 40 44 47 47 46 46 46 46 43 38 35 33 29 24 17 11 8 5 1 0 0 0 0 0 0 0 0 0 0 0 0 0 0 0 0 0
16 16 19 27 34 36 38 41 43 43 43 42 43 44 45 44 40 37 35 32 25 17 11 7 4 1 0 0 0 0 0 0 0 0 0 0 0 0 0 0 0 0 0
16 18 20 27 34 38 40 42 44 43 42 42 42 43 43 43 41 37 34 31 25 17 10 5 3 1 0 0 0 0 0 0 0 0 0 0 0 0 0 0 0 0 0
15 16 19 24 31 37 41 42 43 44 43 42 41 42 41 40 39 36 33 30 25 16 9 4 2 1 0 0 0 0 0 0 0 0 0 0 0 0 0 0 0 0 0
13 13 16 23 30 36 39 39 39 41 41 38 36 36 36 35 34 32 31 28 24 16 8 4 2 1 0 0 0 0 0 0 0 0 0 0 0 0 0 0 0 0 0
11 12 15 20 27 33 35 34 34 36 36 33 30 28 29 29 28 27 26 25 22 14 7 4 2 1 0 0 0 0 0 0 0 0 0 0 0 0 0 0 0 0 0
9 11 14 16 20 26 29 29 30 31 30 29 27 25 25 25 23 22 22 21 17 10 5 3 1 0 0 0 0 0 0 0 0 0 0 0 0 0 0 0 0 0 0
8 9 11 13 15 18 21 23 26 27 27 27 25 24 24 22 20 19 17 15 10 6 3 1 0 0 0 0 0 0 0 0 0 0 0 0 0 0 0 0 0 0 0
7 7 8 12 14 15 17 18 19 22 24 24 23 22 21 19 17 15 13 10 6 3 1 0 0 0 0 0 0 0 0 0 0 0 0 0 0 0 0 0 0 0 0
6 5 6 9 13 15 15 15 14 15 18 19 19 18 17 16 14 13 11 7 5 3 1 0 0 0 0 0 0 0 0 0 0 0 0 0 0 0 0 0 0 0 0
6 5 4 6 9 11 12 12 11 11 13 14 14 13 12 12 12 12 9 6 4 2 1 0 0 0 0 0 0 0 0 0 0 0 0 0 0 0 0 0 0 0 0
6 5 4 4 5 8 10 9 8 8 10 11 11 10 8 9 10 10 8 5 3 2 1 0 0 0 0 0 0 0 0 0 0 0 0 0 0 0 0 0 0 0 0
5 5 5 4 5 6 8 9 7 6 8 10 10 8 6 7 7 7 6 4 2 1 0 0 0 0 0 0 0 0 0 0 0 0 0 0 0 0 0 0 0 0 0
4 5 5 5 5 6 7 9 9 6 6 8 9 8 6 6 4 4 3 2 1 1 0 0 0 0 0 0 0 0 0 0 0 0 0 0 0 0 0 0 0 0 0
4 4 5 5 5 6 8 10 11 8 5 6 7 7 6 5 2 1 2 1 0 0 0 0 0 0 0 0 0 0 0 0 0 0 0 0 0 0 0 0 0 0 0
3 4 5 6 5 5 7 9 11 10 7 6 6 5 5 3 1 0 0 0 0 0 0 0 0 0 0 0 0 0 0 0 0 0 0 0 0 0 0 0 0 0 0
3 3 5 7 6 5 6 8 9 10 8 7 5 3 2 1 0 0 0 0 0 0 0 0 0 0 0 0 0 0 0 0 0 0 0 0 0 0 0 0 0 0 0
3 3 5 7 6 5 6 8 8 9 8 6 4 2 1 0 0 0 0 0 0 0 0 0 0 0 0 0 0 0 0 0 0 0 0 0 0 0 0 0 0 0 0
3 3 4 6 6 5 6 7 7 7 6 4 3 2 1 0 0 0 0 0 0 0 0 0 0 0 0 0 0 0 0 0 0 0 0 0 0 0 0 0 0 0 0
3 3 4 6 5 4 5 5 4 4 3 2 3 2 1 0 0 0 0 0 0 0 0 0 0 0 0 0 0 0 0 0 0 0 0 0 0 0 0 0 0 0 0
3 4 5 6 5 4 4 4 4 2 1 1 3 2 1 0 0 0 0 0 0 0 0 0 0 0 0 0 0 0 0 0 0 0 0 0 0 0 0 0 0 0 0
Wind_Speed
4 7 14 15 16 16 16 17 17 17 17 17 17 18 18 18 18 18 18 17 17 17 17 17 16 16 16 16 16 15 15 15 15 14 14 14 14 15 15 15 14 10 16
6 9 14 15 15 16 16 16 16 16 16 17 17 17 18 18 18 17 17 17 17 17 17 16 16 16 16 15 15 15 15 15 15 14 13 12 14 15 15 15 14 10 16
7 9 12 14 14 15 15 16 16 16 16 16 17 17 17 18 18 17 17 17 17 17 16 16 16 16 15 15 15 15 15 15 14 13 11 5 8 15 15 15 15 16 16
7 8 9 13 14 14 15 15 16 16 17 17 17 17 17 18 18 18 17 17 17 17 16 16 16 15 15 15 15 14 14 14 13 12 6 4 5 13 15 15 15 16 16
6 7 9 13 14 15 15 15 15 16 17 17 17 17 18 18 18 17 17 17 17 17 17 16 16 15 15 15 14 13 13 13 13 9 5 4 4 12 15 15 15 15 15
4 5 8 12 14 14 14 15 15 16 17 17 18 18 18 18 18 17 17 17 17 17 17 16 16 15 15 14 13 13 13 14 11 5 4 4 4 12 15 15 15 14 14
3 4 7 11 13 14 14 14 15 15 17 17 18 18 19 19 18 18 17 18 18 17 17 16 16 15 14 14 14 14 14 14 7 5 4 4 6 13 14 14 14 14 14
3 4 5 10 11 12 13 14 14 15 17 17 18 18 19 19 19 19 18 18 18 18 17 17 16 15 14 14 14 14 14 12 8 6 4 4 9 13 13 13 13 13 13
1 2 3 6 8 10 11 13 14 14 16 17 18 18 18 19 20 20 19 19 18 18 18 17 16 15 14 14 13 13 13 11 6 4 5 3 10 12 13 12 12 12 12
1 2 3 4 6 6 7 10 12 13 14 15 16 15 15 17 19 19 18 19 19 18 18 17 17 16 14 14 13 12 12 9 5 4 3 5 11 12 12 12 12 11 11
3 3 3 4 5 6 6 8 9 10 12 13 13 14 14 10 11 12 15 18 19 19 18 18 17 15 13 12 12 11 8 4 5 3 3 8 11 12 12 11 11 10 10
5 5 4 4 5 5 5 5 5 6 6 7 7 9 8 8 8 10 15 17 18 18 18 17 16 14 9 5 7 8 4 4 4 3 3 10 11 11 11 11 10 10 9
6 6 5 5 5 5 5 4 4 3 4 5 7 8 7 7 6 7 7 10 11 13 9 11 10 5 5 4 3 3 4 4 3 2 4 10 11 10 11 10 10 9 8
7 7 6 6 5 5 5 5 5 4 4 5 6 8 7 6 7 7 6 7 7 6 7 6 5 6 5 5 5 5 5 4 3 2 4 9 10 10 10 10 9 8 8
8 8 7 7 7 6 5 5 5 6 6 6 6 7 9 7 8 8 7 7 8 7 8 7 6 7 6 5 5 5 5 5 5 4 3 8 9 9 10 10 9 8 7
8 8 7 7 7 7 6 6 6 6 6 7 7 9 10 8 9 9 9 8 8 8 8 8 8 7 5 5 5 5 6 6 5 5 4 5 8 8 9 9 8 8 7
8 8 7 7 7 7 7 7 6 6 7 7 7 9 10 10 10 9 9 9 9 9 10 8 7 6 5 5 5 6 5 5 5 6 5 3 4 6 8 9 8 7 6
7 7 7 6 6 7 7 6 5 6 7 7 7 8 11 11 12 10 9 10 10 10 9 8 8 6 6 5 5 4 4 5 6 5 4 4 3 3 5 7 8 7 6
6 7 7 5 7 7 6 6 6 6 7 7 7 8 10 12 12 10 9 9 11 10 9 10 8 7 6 6 5 4 4 4 5 5 5 5 4 4 3 5 6 7 6
5 6 6 5 6 6 5 5 4 5 6 7 7 8 11 10 12 10 9 11 11 10 10 10 10 7 7 7 6 4 3 3 3 4 5 4 4 5 4 4 3 3 6
4 5 6 5 6 5 4 4 5 5 6 6 7 10 12 12 12 10 9 11 11 11 12 12 9 10 7 6 5 3 1 0 3 4 4 4 4 5 5 4 3 3 2
4 5 6 6 6 7 5 5 5 5 6 7 7 9 11 12 13 11 11 11 11 10 13 13 10 8 6 7 7 6 3 1 2 3 3 4 5 4 4 5 5 4 3
4 5 6 6 5 6 6 4 3 3 3 5 6 7 10 12 12 12 12 12 11 11 12 14 13 11 9 7 7 7 6 6 3 2 4 4 5 4 4 4 5 5 5
5 5 5 5 5 6 5 5 6 5 6 6 6 6 9 12 13 12 13 13 12 11 12 13 12 10 11 10 6 3 3 5 5 3 2 3 4 5 5 5 5 5 5
5 5 5 5 5 5 6 7 6 6 5 4 5 7 8 9 11 12 13 13 12 11 13 13 11 12 10 10 8 5 3 2 3 4 4 3 2 3 4 5 4 4 4
4 4 4 5 5 5 6 7 7 7 7 7 8 8 7 7 8 11 12 13 13 11 13 13 13 13 10 9 7 6 6 5 5 4 4 4 3 3 3 3 4 4 4
Wind_Direction
195 184 183 174 170 166 162 157 154 151 149 146 143 140 138 136 134 134 134 133 132 131 128 125 121 119 116 114 112 109 108 107 104 103 102 103 103 100 97 91 88 80 84
170 174 179 175 172 170 166 162 158 155 154 151 149 146 144 142 140 139 139 138 136 133 131 127 125 123 120 117 115 112 109 107 104 101 100 101 104 103 101 98 95 91 88
153 169 175 175 174 173 170 167 162 160 159 157 155 152 150 148 145 144 142 141 139 137 134 131 129 126 124 122 119 116 113 110 106 101 95 86 102 105 102 99 98 94 92
154 166 174 178 176 174 174 172 168 166 165 162 160 157 155 153 150 149 147 145 142 139 136 133 131 130 127 125 123 120 117 113 109 103 86 83 100 108 105 101 98 95 92
152 166 176 180 179 177 176 176 174 171 169 168 165 162 160 158 155 155 153 150 146 141 137 135 134 134 132 130 126 124 120 115 110 100 89 88 94 109 105 102 99 96 94
157 170 177 181 184 181 180 180 179 176 175 174 172 168 166 163 159 157 155 151 145 142 140 139 138 137 136 133 130 125 119 116 107 95 94 93 97 110 108 104 102 99 96
159 176 182 184 186 186 185 184 183 181 181 180 178 175 171 166 162 158 154 151 147 145 144 144 143 142 138 136 133 126 121 120 112 105 103 101 111 114 112 109 105 101 98
166 184 186 188 189 190 191 189 186 186 185 184 182 178 174 169 165 161 157 154 151 151 150 150 149 146 143 141 136 127 123 120 115 115 112 114 121 117 115 112 108 104 101
170 180 192 195 191 195 198 196 193 191 188 186 185 182 176 172 169 165 161 158 156 154 154 153 152 149 147 144 139 130 125 118 116 120 121 121 126 122 118 115 112 108 104
234 208 210 209 195 193 197 199 198 196 192 189 187 183 177 174 172 168 164 162 160 159 158 157 154 154 152 148 141 131 124 116 117 118 118 132 131 127 123 120 116 113 109
293 236 221 219 211 200 198 200 196 196 194 191 187 180 175 175 172 169 166 164 164 163 162 161 158 157 153 150 144 131 119 120 125 124 133 140 136 132 129 125 121 119 116
281 260 225 217 217 210 206 197 196 197 192 191 187 182 179 172 173 169 168 166 166 165 165 163 161 157 147 140 142 130 120 133 131 138 153 149 144 141 137 133 128 125 122
250 261 247 221 216 213 208 199 195 191 188 189 184 181 176 171 167 169 167 167 164 162 161 160 155 145 144 145 140 136 139 141 143 152 161 155 151 149 146 140 136 133 129
255 253 255 228 217 216 212 203 196 189 188 189 186 182 175 175 173 171 172 166 162 160 157 155 153 152 156 157 154 149 148 149 154 155 169 161 158 156 153 149 146 142 140
254 254 253 237 216 212 212 210 202 194 193 193 187 186 183 178 180 174 172 172 166 161 162 160 160 163 166 165 163 158 158 159 160 159 163 164 161 161 161 159 156 153 152
250 249 249 248 223 212 208 210 208 198 194 193 191 191 188 183 182 179 173 177 171 167 167 166 167 169 170 167 167 164 162 162 162 161 164 166 165 168 171 167 165 163 162
253 248 247 252 232 214 210 207 209 203 196 196 195 193 190 187 183 184 179 179 176 171 167 165 164 162 165 166 167 165 162 165 166 166 165 164 165 169 172 176 174 175 174
254 251 244 255 245 221 212 209 206 206 201 200 196 193 190 189 185 182 185 183 177 171 168 167 166 163 167 166 163 166 164 164 168 170 168 167 167 168 176 179 182 185 185
248 249 240 243 243 222 216 213 211 206 204 200 196 193 190 190 188 183 186 184 176 174 171 171 168 162 164 165 163 160 165 169 170 169 172 176 177 174 177 186 190 197 201
256 251 239 234 241 225 214 216 213 211 208 203 197 193 189 188 189 184 187 185 180 177 173 172 167 163 163 163 157 152 164 178 175 176 181 180 181 181 180 182 182 199 205
277 270 248 234 243 224 211 209 211 212 212 207 203 196 192 188 186 187 188 186 185 184 177 170 165 164 162 153 134 128 65 198 194 191 185 181 188 187 181 184 179 181 201
258 270 257 236 235 223 214 211 209 211 214 206 203 199 195 191 187 188 187 188 188 186 178 174 164 161 163 163 150 142 146 239 253 212 193 192 194 186 191 192 185 186 185
271 270 268 254 250 234 220 216 216 210 208 203 204 200 198 194 192 190 191 187 187 189 186 179 173 166 166 171 164 155 159 192 199 236 214 202 192 190 196 192 194 193 189
267 271 262 254 253 245 220 211 210 211 218 215 204 205 201 196 192 192 193 190 187 191 189 183 177 170 165 170 174 172 157 150 156 180 237 216 201 200 198 196 195 195 191
265 271 268 263 257 251 229 215 217 221 223 218 203 201 205 201 195 193 196 194 190 193 191 182 176 175 174 173 171 162 151 142 138 149 188 204 217 217 204 198 193 195 195
290 285 279 274 266 263 242 225 219 229 225 215 206 203 201 202 198 195 196 196 191 193 192 184 179 178 180 176 172 169 165 165 172 159 172 186 201 224 209 198 196 198 196